map of MMX home
MMX - Airport
Location
City:  Malmö, Skåne län, Sweden
Name:Malmö-Sturup Airport
ICAO:ESMS
IATA:MMX

Details
Type:Airport (Aerodrome, Airfield)
Use:Public/Civil, International (customs port of entry)
Latitude:55°31'49"N (55.530193)
Longitude:13°22'18"E (13.371639)
Datum:WGS 1984
Elevation:236 ft (72 m)
Variation:3.99°E (WMM2015 magnetic declination)
0.15° annual change
Runways:2
Longest:9186 × 148 ft (2800 × 45 m), paved

Time
Time Zone:UTC+1 (DST+2)
Local Time:

Weather
METAR:ESMS 211250Z 33005KT 9999 FEW020 SCT065 02/M02 Q1026 R17/09//95
TAF:ESMS 211105Z 2112/2212 32006KT 9999 BKN020
TEMPO 2123/2206 2000 -SN BKN008

Related Locations
Nearby:
Farthest:CHT: 11512 mi / 18526 km
Waitangi [Tuuta], CIT, NZ

Find:

   beyond  
but within

Other Information
Maps:
NOTAMs:
Links:
Sources:

  
flag of Sweden   

Sectional Chart

Flight Planning
at skyvector.com

Satellite Image

Google Maps Satellite view

 

Copyright © 2004-2018 Karl L. Swartz. All rights reserved.
The Great Circle Mapper name and logo are trademarks of the Great Circle Mapper.
All other trademarks mentioned herein belong to their respective owners.
Please see credits for attibutions and further copyright information.

  Follow gcmap on Facebook Follow gcmap on Twitter Follow gcmap on Google+ GCmap on LinkedIn

hCard Microformat

Geo Microformat